Theta_e
297 297 297 297 297 296 296 296 296 295 295 295 295 295 295 296 296 297 297 297 298 301 302 303 305 305 305 306 307 307 308 308 309 310 311 312 314 314 313 316 318 321 323
297 297 297 297 297 297 296 296 296 296 295 295 295 294 294 294 296 296 297 297 297 298 299 301 301 302 303 304 306 306 306 307 308 309 310 310 312 313 314 314 314 317 319
297 297 297 297 297 297 297 297 296 296 296 296 295 295 295 294 294 296 297 297 298 297 297 297 298 301 302 302 304 306 305 308 308 308 309 309 311 312 312 313 315 316 317
297 297 297 297 297 297 297 297 297 297 297 297 296 296 295 294 295 295 296 297 297 297 297 296 296 297 299 300 304 306 306 307 307 308 309 309 310 311 311 312 314 314 315
296 296 296 296 296 296 296 296 296 296 297 296 296 296 295 293 293 293 293 294 294 295 295 295 296 296 297 300 302 303 305 305 307 307 308 309 309 310 311 312 312 313 315
296 296 296 296 295 295 296 296 296 296 296 296 296 296 295 294 294 294 294 294 294 294 295 296 296 297 298 299 299 301 303 305 305 306 307 308 309 310 311 310 311 312 313
296 296 296 295 295 295 295 295 296 296 296 296 296 296 296 295 295 294 293 294 294 295 296 296 296 297 297 297 298 298 301 302 303 306 307 307 309 310 310 312 310 312 313
296 296 295 295 295 294 294 294 296 296 296 295 295 295 295 295 294 294 294 294 294 295 295 296 296 296 296 296 298 299 299 301 304 305 306 307 309 309 311 311 310 311 312
296 296 296 295 295 294 294 294 294 295 296 295 295 294 294 294 293 294 295 294 295 294 296 296 296 295 295 295 298 299 300 302 303 304 306 308 309 309 310 311 312 311 312
296 296 296 295 295 294 294 294 295 295 295 295 295 294 294 294 293 293 293 293 294 294 295 295 295 296 295 295 298 299 301 302 303 305 306 307 310 311 313 313 313 312 310
296 296 295 295 295 295 294 294 294 295 296 295 295 295 294 294 294 293 293 294 294 295 294 294 295 296 295 295 297 299 300 302 303 304 306 308 310 310 313 314 315 314 311
296 296 295 295 295 295 294 294 294 294 295 295 295 295 294 294 294 294 294 294 293 294 294 293 294 295 295 295 295 298 300 301 303 304 305 306 307 309 311 312 316 314 311
296 296 296 295 295 295 295 294 294 294 295 296 295 295 295 294 294 294 294 294 294 294 294 293 293 294 295 295 295 295 297 301 302 303 304 304 306 308 308 313 312 311 314
296 296 296 295 295 295 295 294 294 294 294 295 295 295 295 295 294 294 294 294 295 294 293 293 292 293 294 294 295 294 295 298 301 302 303 304 305 304 307 308 312 313 313
296 296 296 295 295 295 295 294 294 293 294 294 295 296 296 295 294 293 294 294 294 294 293 293 293 292 293 293 293 293 294 296 300 301 302 304 304 304 306 306 308 312 316
296 296 296 295 295 295 295 294 294 293 294 294 294 294 296 295 293 293 293 294 294 294 293 293 293 292 292 292 292 292 294 295 298 300 301 303 303 303 303 304 305 307 314
296 296 296 295 295 295 294 294 294 293 294 294 293 292 295 295 293 292 293 294 294 295 294 293 293 292 291 291 291 291 292 294 297 299 299 300 302 302 302 302 303 305 305
296 296 296 296 295 295 294 294 294 293 294 293 293 292 294 294 293 292 294 294 295 295 294 293 293 292 292 291 291 291 292 293 294 297 298 299 299 300 301 301 301 301 303
297 296 296 296 295 295 294 294 294 293 293 293 293 293 295 294 293 291 294 295 295 294 293 293 293 292 291 291 290 291 291 292 292 294 296 297 298 299 300 301 301 301 301
297 297 296 296 295 294 294 294 294 293 293 293 293 294 295 295 294 292 294 295 295 294 293 293 293 291 291 290 290 290 291 292 292 292 293 295 297 298 298 299 301 300 300
297 297 296 296 295 295 294 294 294 293 293 293 293 293 294 295 294 293 294 294 295 294 293 293 292 291 291 291 290 290 289 290 291 291 292 293 295 296 296 297 297 299 299
297 297 297 296 296 295 294 294 294 294 293 294 294 293 294 295 294 292 291 294 294 293 294 293 292 292 291 291 291 290 290 289 290 291 291 291 293 294 294 294 294 295 298
297 297 297 296 296 296 294 294 294 294 294 294 294 293 294 295 294 292 291 291 290 291 292 292 292 292 292 292 291 292 291 290 290 290 290 291 292 292 292 293 292 292 293
299 297 297 297 296 296 295 294 294 294 294 294 294 293 293 294 294 293 292 291 290 290 290 290 292 292 293 293 291 291 290 290 290 290 291 291 290 290 291 291 292 292 292
299 298 297 297 296 296 296 295 294 294 294 294 294 293 293 294 293 293 293 291 290 289 290 291 293 293 293 292 291 291 291 291 289 289 290 290 291 292 291 291 291 291 291
299 299 298 297 296 296 296 295 294 294 295 295 295 294 294 293 293 293 293 291 290 290 290 291 292 292 291 291 291 291 290 290 291 291 291 290 290 290 290 290 291 291 290
Wind_Speed
10 11 12 13 14 16 17 19 20 18 18 17 17 17 15 14 15 16 16 15 13 12 14 14 16 16 18 20 21 22 22 24 25 25 25 23 23 25 27 27 29 29 30
10 10 12 12 14 15 15 18 20 21 20 20 19 18 17 16 15 15 15 16 16 15 14 14 16 19 21 22 23 24 25 24 23 23 23 26 26 26 27 29 29 31 46
10 11 12 12 13 14 15 17 19 20 20 20 18 17 15 15 14 13 14 15 16 17 19 21 20 20 21 24 24 23 22 23 23 24 24 27 28 28 30 29 29 30 29
9 10 11 11 13 14 15 17 18 19 20 20 19 19 17 13 13 15 15 15 17 18 21 24 25 23 23 23 22 21 21 22 23 24 25 27 30 30 32 33 33 33 34
9 9 10 12 13 14 15 16 17 18 18 17 17 17 12 8 20 16 13 15 15 16 19 20 22 24 25 20 20 21 22 22 23 24 26 28 30 33 34 34 35 36 35
8 8 9 11 13 14 15 16 16 16 19 21 22 20 6 8 20 15 19 17 15 16 17 19 20 19 21 21 21 22 23 24 27 27 28 31 32 34 35 37 38 38 39
8 8 9 11 13 14 16 16 15 16 17 21 24 25 12 11 15 17 21 21 17 13 14 15 16 17 19 21 22 22 23 24 28 28 32 34 36 36 37 37 40 39 39
8 9 9 10 13 13 14 14 14 16 17 20 23 22 17 15 27 13 21 23 23 17 13 14 16 17 20 22 24 22 22 22 28 31 36 38 40 37 37 40 42 43 43
9 10 9 10 12 13 13 13 14 14 17 15 15 13 8 10 32 23 24 25 25 20 16 13 18 19 21 23 21 24 21 25 28 33 37 34 34 37 45 45 45 46 46
10 10 10 11 11 13 13 13 13 14 13 15 14 14 11 14 16 20 31 30 28 25 18 15 21 19 22 22 19 19 24 23 28 32 33 27 31 35 46 51 53 50 50
11 11 10 11 12 13 13 13 12 13 14 13 13 16 17 15 16 21 30 38 31 28 26 18 23 19 21 22 20 21 19 22 27 30 32 28 24 43 33 37 49 48 48
12 12 11 12 12 13 13 13 12 12 13 13 13 14 15 17 19 21 25 30 32 31 25 26 21 21 21 23 22 21 21 19 23 28 34 32 27 37 24 24 23 39 43
13 13 12 12 12 13 13 14 12 13 13 13 13 14 14 15 16 19 22 26 30 28 26 26 24 20 18 21 22 24 23 18 19 28 28 34 19 26 44 11 18 33 38
14 14 13 13 13 13 14 14 13 12 12 13 12 15 16 16 15 17 19 23 28 24 29 25 28 19 17 20 23 25 24 22 18 23 24 28 32 28 30 39 45 36 44
14 15 14 14 14 14 15 15 14 13 13 13 13 15 17 17 15 15 16 19 20 22 27 29 28 24 24 25 27 28 25 21 19 19 19 30 28 33 28 34 46 44 5
17 16 15 15 15 14 15 16 15 14 14 13 15 17 16 17 15 15 15 14 17 21 19 28 27 27 25 26 27 24 20 18 16 16 17 26 26 30 32 31 36 41 46
18 18 16 17 16 15 16 17 16 15 14 15 16 18 16 16 16 15 14 13 16 20 22 26 25 28 26 24 25 21 18 16 14 13 14 15 21 25 29 32 34 36 32
19 19 17 18 17 16 16 17 17 15 15 16 17 18 15 16 16 14 12 14 17 18 22 26 26 27 26 22 25 20 16 14 14 12 12 13 18 19 20 23 27 24 32
21 20 19 18 18 17 18 18 18 17 15 15 16 17 15 16 16 12 11 15 17 16 18 21 24 26 21 19 22 16 13 10 12 10 9 12 15 15 14 19 21 21 23
23 21 20 19 20 18 18 19 19 18 17 15 16 16 15 15 16 13 12 15 15 15 16 19 20 20 18 18 18 19 12 10 7 10 10 9 12 14 13 10 11 15 19
24 22 22 21 20 20 18 19 19 19 19 16 14 15 15 15 15 13 13 13 14 15 15 17 15 18 19 22 21 19 18 14 7 11 10 8 6 10 11 11 10 6 10
26 24 24 22 21 21 19 19 20 21 19 19 17 15 15 14 14 13 12 11 12 14 13 14 11 16 18 18 19 17 18 19 16 12 7 10 8 9 11 13 14 13 7
26 26 25 24 23 21 20 20 20 21 20 19 18 17 15 14 14 13 12 13 13 10 10 11 10 11 15 16 19 18 17 12 12 17 11 8 7 8 9 12 16 14 12
29 27 26 24 24 22 21 20 20 21 21 19 18 18 15 13 13 12 12 12 12 11 10 10 9 9 11 13 15 18 17 9 7 12 10 8 7 8 11 12 14 16 13
29 28 26 25 25 23 21 21 20 21 21 19 17 17 16 14 13 11 12 13 11 10 9 8 8 9 9 10 12 12 16 20 7 11 13 11 10 8 11 13 13 15 14
29 28 28 26 25 24 21 21 21 21 21 18 16 16 15 14 11 11 12 12 10 9 8 8 9 9 9 9 8 9 11 13 13 9 15 14 16 11 7 11 11 13 14
Wind_Direction
360 1 4 5 4 8 8 8 8 4 359 355 350 342 331 318 315 314 315 321 323 333 333 321 318 312 312 310 308 304 300 297 297 291 288 282 274 276 276 270 261 258 258
360 0 5 1 -0 6 5 6 5 9 6 2 357 349 340 328 318 312 307 308 308 307 318 327 316 315 313 312 311 304 301 298 297 294 283 280 281 272 271 269 267 259 246
357 360 360 357 356 1 359 359 3 3 359 3 2 355 345 333 332 318 312 303 302 305 305 309 321 319 314 312 312 309 304 302 298 295 288 281 280 276 274 270 267 265 256
351 352 350 351 353 354 355 357 354 356 356 352 355 353 344 344 337 328 325 310 308 308 303 305 310 315 317 315 315 314 309 304 301 299 294 287 282 276 271 268 267 259 258
338 343 347 348 349 350 350 351 354 356 356 354 354 353 342 22 5 355 333 318 309 310 315 314 310 312 314 317 312 310 312 310 307 299 299 292 287 279 273 268 262 263 255
326 331 339 345 352 354 348 348 353 357 354 353 356 6 13 342 12 8 4 350 322 318 319 321 321 318 324 320 312 308 312 312 313 303 302 300 290 281 275 268 264 258 258
312 322 330 342 351 352 352 350 349 351 355 354 357 4 7 356 352 10 6 4 359 344 331 329 331 328 333 336 324 309 311 312 315 310 301 299 295 283 272 267 261 259 254
305 314 326 337 345 347 347 353 347 348 0 3 1 4 350 356 337 349 2 358 357 351 345 343 338 338 341 340 338 329 326 333 322 315 308 300 293 281 275 267 258 253 249
297 302 317 326 334 339 341 349 350 346 346 0 5 8 347 329 338 335 358 4 356 2 -0 355 353 345 340 341 343 342 343 336 330 324 318 306 298 284 278 268 259 251 246
285 294 307 312 325 331 334 335 338 350 341 347 350 356 340 329 333 326 335 349 355 359 4 360 351 340 345 344 348 344 348 333 327 338 331 316 309 300 285 267 254 246 241
281 292 300 304 316 323 326 331 324 321 336 332 336 339 338 333 330 324 325 339 345 352 352 351 352 346 345 347 342 349 335 350 340 339 341 323 310 337 308 281 247 235 237
277 287 294 300 309 314 319 326 325 320 322 323 324 328 329 330 329 326 323 333 336 339 341 344 348 339 340 342 341 342 339 348 350 359 357 340 304 348 347 310 243 229 232
274 281 288 294 303 306 312 319 325 321 317 319 316 320 328 328 322 319 319 327 330 333 342 343 341 331 337 336 341 338 339 333 359 2 350 351 341 0 358 306 254 242 231
271 276 283 289 296 300 305 312 320 320 309 313 313 310 317 329 321 314 317 325 331 333 340 347 344 334 342 335 332 329 331 337 340 353 354 0 358 349 355 12 13 232 227
270 273 278 284 291 297 300 306 315 316 302 307 313 310 315 321 320 315 316 326 328 323 333 342 341 339 331 325 323 320 325 330 340 340 1 7 357 360 20 17 14 46 34
268 272 275 282 287 293 297 300 308 312 302 300 307 311 314 315 317 316 312 320 327 323 318 341 341 337 329 320 323 323 323 327 332 339 353 20 359 4 12 13 20 26 50
265 270 273 277 285 289 292 296 302 307 300 301 304 308 309 311 318 314 310 319 325 324 319 335 338 339 333 332 333 337 332 330 332 338 350 360 1 5 7 14 22 23 15
262 268 271 276 283 287 289 292 297 302 299 300 305 306 306 307 314 316 313 318 326 325 332 331 336 336 330 333 334 336 340 334 333 336 345 346 351 3 3 17 24 20 16
260 265 269 275 280 284 286 288 293 298 296 301 305 307 304 305 312 312 312 318 323 327 334 331 334 335 335 333 336 343 350 346 350 338 337 340 2 13 2 8 24 24 33
259 262 268 273 277 281 282 285 289 295 296 299 303 302 300 301 309 311 307 312 322 323 329 326 332 347 356 354 351 355 4 357 356 4 3 342 341 352 6 13 10 20 38
258 261 265 270 275 278 281 282 287 291 295 296 299 299 297 297 306 304 298 309 315 314 322 331 344 353 357 358 359 357 358 4 350 2 3 13 349 340 357 16 26 18 31
257 259 262 269 272 277 281 279 284 289 293 295 300 302 293 291 300 305 298 306 300 305 313 328 336 348 354 353 359 7 3 10 14 7 22 21 29 15 5 15 13 356 7
258 259 262 266 272 276 277 278 280 284 289 292 295 298 292 289 297 305 300 308 320 313 303 315 322 334 350 355 10 8 6 16 21 5 18 31 27 12 5 357 5 5 13
257 260 262 265 269 273 276 277 279 281 285 289 290 293 289 286 291 300 303 313 323 320 315 308 313 329 334 340 2 10 6 12 15 5 20 9 7 355 8 17 13 21 20
258 260 264 265 268 272 274 275 278 280 284 287 286 288 285 284 284 288 294 309 319 323 326 322 318 321 318 324 345 4 19 26 33 22 20 22 17 24 25 18 17 17 16
260 262 262 263 266 269 270 273 276 277 281 286 285 284 283 284 272 279 288 302 310 321 321 312 310 313 317 327 337 351 2 19 29 29 28 36 35 30 26 33 20 10 8